Location: Unspecified
(0.0000°N, 0.0000°E)
Time: 01:39:32
(UTC+00:00)

Tiros 1 - Pass Details

Date: 16 April 2026
Orbit: 618 x 648 km, 48.4° (Epoch: 15 May)

Event Time Altitude Azimuth Distance (km) Brightness Sun altitude
Rises 19:23:38 0° 319° (NW) 2,938 11.4 -20.6°
Reaches altitude 10° 19:25:57 10° 318° (NW) 2,033 10.4 -21.2°
Maximum altitude 19:30:38 80° 232° (SW) 658 7.1 -22.3°
Enters shadow 19:31:43 53° 155° (SSE) 791 7.3 -22.6°
